Location: Garnier
(44.3167°N, 6.2833°E)
Time: 09:06:43
(UTC+00:00)

Daily predictions for brighter satellites

Satellite Brightness Start Highest point End
(mag) Time Altitude Azimuth Time Altitude Azimuth Time Altitude Azimuth
Okean 1 Rocket 4.1 17:23:36 10° NNE 17:27:14 25° ENE 17:30:50 10° SE
SMAP 4.3 17:24:33 10° S 17:29:03 48° W 17:33:35 10° NNW
COSMOS 2428 3.1 17:23:44 10° NNW 17:29:12 44° ENE 17:34:38 10° SE
ARIANE 5 R/B 2.7 17:26:21 10° S 17:31:29 79° WSW 17:36:36 10° NNW
Cosmos 158 Rocket 3.8 17:30:44 10° S 17:35:32 67° ESE 17:40:22 10° NNE
Cosmos 2237 Rocket 3.3 17:33:42 10° N 17:38:18 24° NE 17:42:53 10° ESE
Cosmos 2322 Rocket 4.3 17:33:34 10° NW 17:38:28 32° WSW 17:43:20 10° SSW
Aureole 3 Rocket 4.0 17:35:29 10° NNE 17:38:32 20° ENE 17:41:07 10° ESE
SeaSat 1 2.6 17:33:49 10° SSE 17:38:43 82° WSW 17:43:38 10° NNW
Cosmos 1378 Rocket 3.4 17:34:31 10° S 17:38:48 74° E 17:43:07 10° NNE
ATLAS 5 CENTAUR R/B 1.8 17:35:27 10° NW 17:39:50 85° NE 17:45:17 10° SE
Resurs 01 Rocket 2.6 17:36:36 10° ESE 17:40:09 25° ENE 17:43:44 10° NNE
USA 234 3.8 17:33:40 10° SE 17:40:09 65° SW 17:46:42 10° NW
GP-B 3.1 17:38:26 10° S 17:42:47 90° W 17:47:11 10° N
SKYMED 2 3.5 17:40:04 10° NNE 17:44:26 77° ESE 17:48:46 10° S
Cosmos 2219 Rocket 3.3 17:42:55 10° NW 17:48:17 49° WSW 17:53:36 10° S
Cosmos 2292 Rocket 3.6 17:45:35 10° SSW 17:48:24 49° W 17:51:18 10° N
COSMO-SKYMED 1 2.7 17:44:43 10° NNE 17:48:43 48° E 17:52:41 10° S
CZ-4 R/B 4.4 17:45:02 10° SSE 17:48:59 85° WSW 17:52:59 10° NNW
PSLV R/B 3.9 17:46:03 10° SE 17:49:54 39° ENE 17:53:45 10° N
NOSS 3-3 (A) 3.6 17:45:28 10° SSW 17:50:27 67° ESE 17:56:21 10° NE
IRS-P3 4.4 17:46:52 10° S 17:52:11 77° WSW 17:57:32 10° NNW
Cosmos 2322 3.7 17:47:48 10° NNW 17:53:33 74° ENE 17:59:15 10° SSE
Resurs 1-3 3.5 17:49:16 10° SSE 17:53:33 75° ENE 17:57:52 10° N
USA 306 2.6 17:52:11 10° NW 17:54:28 22° NNE 17:55:03 20° NE
Cosmos 2016 Rocket 4.1 17:49:36 10° N 17:55:52 84° W 18:02:10 10° S
Cosmos 1025 Rocket 3.0 17:52:54 10° S 17:57:07 62° E 18:01:24 10° NNE
SJ-7 4.2 17:54:03 10° SSE 17:57:39 53° ENE 18:01:16 10° N
Cosmos 2285 Rocket 4.3 17:54:19 10° N 18:00:31 46° ENE 18:06:37 10° SE
SL-16 R/B 3.9 17:58:42 10° NNE 18:01:16 13° NE 18:02:27 12° NE
Cosmos 1375 Rocket 4.5 17:55:09 10° SSW 18:01:26 70° ESE 18:07:52 10° NE
SPOT 1/Viking Rocket 4.2 17:57:23 10° S 18:02:25 60° W 18:07:29 10° NNW
Cosmos 2227 Rocket 3.5 17:59:09 10° SE 18:02:43 17° E 18:03:35 17° E
SJ-6B 3.4 18:05:12 18° ESE 18:06:54 26° ENE 18:09:49 10° NNE
SPOT 5 4.2 18:08:20 19° ENE 18:08:57 19° ENE 18:12:25 10° NNE
NOSS 3-4 (A) 4.4 18:04:14 10° NNW 18:10:19 37° NE 18:15:10 18° E
NOSS 3-4 (C) 4.4 18:04:29 10° NNW 18:10:35 36° NE 18:15:23 19° E
CZ-2D R/B 3.3 18:07:34 10° SSE 18:11:27 84° W 18:15:26 10° NNW
Cosmos 2233 Rocket 4.1 18:05:33 10° N 18:11:50 85° W 18:18:09 10° S
Cosmos 1674 Rocket 3.9 18:08:59 10° SSW 18:13:19 68° W 18:17:44 10° N
Cosmos 1315 Rocket 3.7 18:14:00 10° NNW 18:17:40 48° W 18:21:20 10° S
Lacrosse 5 rocket 3.0 18:23:30 10° WNW 18:26:13 21° NNW 18:28:21 13° NNE
Atlas Centaur 2 4.1 18:21:08 10° SW 18:26:54 24° S 18:30:59 14° SE
Cosmos 2061 Rocket 4.2 18:20:38 10° N 18:27:01 76° W 18:33:17 10° S
Helios 1A Rocket 3.2 18:28:45 32° SE 18:28:45 32° SE 18:30:59 10° S
CZ-4C R/B 2.5 18:27:08 10° WSW 18:31:12 50° NW 18:36:08 11° NNE
Radarsat Rocket 4.2 18:27:35 10° S 18:33:22 70° WSW 18:39:30 10° NNW
IRAS Rocket 4.2 18:27:52 10° SSE 18:33:24 68° ENE 18:39:01 10° N
CARTOSAT-1 3.7 18:29:21 10° S 18:33:32 71° W 18:37:44 10° NNW
Tiangong -0.2 18:35:12 10° SSW 18:37:06 19° S 18:37:06 19° S
CRYOSAT 2 4.2 18:34:07 10° N 18:39:01 78° E 18:43:54 10° S
NOSS 0 Rocket 4.1 18:33:07 10° NNW 18:39:22 77° WSW 18:45:34 10° SSE
USA 267 4.4 18:41:48 16° NE 18:46:13 33° NNW 18:51:52 10° WNW
Cosmos 2297 Rocket 2.1 18:41:28 10° SSW 18:47:07 89° WNW 18:52:37 11° NNE
Cosmos 1464 Rocket 4.0 18:41:14 10° N 18:47:29 55° ENE 18:53:39 10° SSE
Cosmos 1570 Rocket 3.9 18:42:51 10° SSW 18:48:07 79° ESE 18:52:48 13° NNE
CSL-04 Rocket 3.8 18:47:26 40° E 18:48:29 45° ENE 18:53:29 10° N
Cosmos 2344 3.9 18:41:54 10° S 18:49:21 39° ESE 18:51:11 34° E
BREEZE-M DEB (TANK) 4.1 18:46:56 10° WNW 18:50:57 82° NNE 18:56:52 28° ESE
Cosmos 1975 Rocket 3.1 18:46:43 10° S 18:50:37 54° ESE 18:50:37 54° ESE
Cosmos 1455 Rocket 2.9 18:48:41 10° N 18:52:59 85° W 18:57:17 10° S
Cosmos 1125 Rocket 4.0 18:50:53 10° NNW 18:55:59 60° WSW 19:01:05 10° S
Meteor 1-27 4.3 18:58:13 10° NNW 19:04:00 80° W 19:09:49 10° S
Cosmos 2208 Rocket 3.8 19:00:06 10° SSW 19:05:18 80° ESE 19:07:29 36° NNE
Terra 4.2 19:11:52 10° N 19:11:52 10° N 19:11:58 10° N
Meteor 2-17 Rocket 4.5 19:07:53 10° SSW 19:13:57 78° W 19:20:03 10° N
Resurs 01 Rocket 3.3 19:12:22 10° SSW 19:16:20 34° W 19:20:22 10° NNW
Cosmos 1980 4.1 19:11:34 10° NNW 19:17:09 62° WSW 19:20:52 21° S
Cosmos 2263 Rocket 4.0 19:15:17 10° S 19:16:37 17° S 19:16:37 17° S
Cosmos 44 Rocket 3.2 19:16:35 10° SW 19:21:21 84° WSW 19:21:21 84° WSW
Cosmos 773 Rocket 4.2 19:17:26 10° SSW 19:22:40 69° WNW 19:25:06 32° N
Cosmos 2237 Rocket 2.6 19:17:10 10° NNW 19:22:46 61° WSW 19:25:52 26° S
Cosmos 2228 4.2 19:23:05 10° NNW 19:25:37 35° NNW 19:25:37 35° NNW
Orbus 7S? 4.2 19:22:44 10° NW 19:28:58 60° NNW 19:28:58 60° NNW
Cosmos 2150 Rocket 4.2 19:29:27 10° NNW 19:33:58 66° NW 19:33:58 66° NW
Cosmos 2298 Rocket 4.2 19:30:05 10° NNW 19:34:42 68° NW 19:34:42 68° NW
BREEZE-M DEB (TANK) 4.5 19:38:02 10° WNW 19:42:41 50° SW 19:46:30 31° SSE
Cosmos 2227 Rocket 2.4 19:40:27 10° SSW 19:45:29 66° WSW 19:45:29 66° WSW
SPOT 5 3.7 19:47:23 47° WNW 19:47:23 47° WNW 19:51:17 10° NNW
SL-16 R/B 3.2 19:40:56 10° NNW 19:44:20 36° N 19:44:20 36° N
NOSS 3-4 (A) 4.1 19:54:46 10° NW 20:01:38 65° WSW 20:02:40 59° SSW
NOSS 3-4 (C) 4.1 19:55:02 10° NW 20:01:56 66° WSW 20:02:53 61° SSW
Cosmos 2034 Rocket 4.3 19:56:59 10° NNW 20:02:53 61° W 20:02:53 61° W
BREEZE-M DEB (TANK) 4.0 19:55:54 10° W 20:10:45 74° NW 20:10:45 74° NW
Atlas Centaur 2 4.3 20:09:39 10° WSW 20:12:55 19° SSW 20:12:55 19° SSW
CZ-4C R/B 4.4 20:18:02 10° NW 20:20:59 15° NNW 20:21:07 15° NNW
